Powrót do katalogu

CZ-6A DEB

AktywnyPO
NORAD 61141·DEBRIS·🇨🇳 China

Wystrzelony Aug 6, 2024 z Taiyuan Satellite Launch Center

Loading…

Następne Przeloty (najbliższe 24 godziny)

TLE

ŚwieżeSource: Space-Track

Epoka: Sep 14, 2026, 07:02 UTC

1 61141U 24140QK  26257.29355065  .00003564  00000-0  10207-2 0  9991
2 61141  88.4813 213.6128 0097824  82.6234 278.6072 14.42020438108262

Śledź CZ-6A DEB w czasie rzeczywistym z AllMySat

Download on the App Store